LFKBLFKF

Guest
Details From LFKB - Bastia Poretta
To LFKF - Figari Sud Corse
Flight Number -
Tags generated
Created
Modified
Stats Distance 68 nm / 126 km
Max Altitude 400 ft / 122 m
Waypoints 3
Social Downloads 4
Likes 0
Share VATSIM

Download

Looking for another format? Having issues loading an existing format? Contact us
Advertisement - Login to hide

Notes

Basic altitude profile: - Ascent Rate: 2500ft/min - Ascent Speed: 250kts - Cruise Altitude: 35000ft - Cruise Speed: 420kts - Descent Rate: 1500ft/min - Descent Speed: 250kts Options: - Use NATs: yes - Use PACOTS: yes - Use low airways: yes - Use high airways: no

Route

LFKB BTA LFKF

ID Type Via Altitude Latitude Longitude Leg Dist Tot Dist Heading (true) Name
O LFKB APT - 0 ft / 0 m 42.55251˚ 9.48371˚ - 0 nm - Bastia Poretta
BTA VOR - 400 ft / 122 m 42.57369˚ 9.47459˚ 1 nm 1 nm 342° / 342° BASTIA PORETTA VOR-DME
O LFKF APT - 0 ft / 0 m 41.50206˚ 9.09696˚ 66 nm 67 nm 195° / 195° Figari Sud Corse

Altitude Profile

Advertisement - Login to hide

LFKB

Details ICAO LFKB (BIA)
Name Bastia Poretta
Region France
Timezone Europe/Paris (UTC+2.0)
Stats Elevation 25 ft / 8 m (AMSL)
Location 42.552508° 9.483709°
Runways 1
Magnetic Variation 2.533° E

METAR

LFKB 270600Z AUTO 22002KT CAVOK 19/16 Q1017 NOSIG

Decode

TAF

TAF LFKB 270200Z 2703/2803 24004KT CAVOK BECMG 2708/2709 14012KT TEMPO 2709/2718 14012G22KT TX26/2713Z TN16/2704Z

Decode

Departure Runways

ID Width Length Bearing (true) Bearing (mag) Surface Threshold Offset Overrun Length
16 148 ft / 45 m 8,273 ft / 2,522 m 162.83° 160.30° Concrete 0 ft / 0 m 131 ft / 40 m
34 148 ft / 45 m 8,273 ft / 2,522 m 342.84° 340.31° Concrete 0 ft / 0 m 0 ft / 0 m

LFKF

Details ICAO LFKF (FSC)
Name Figari Sud Corse
Region France
Timezone Europe/Paris (UTC+2.0)
Stats Elevation 87 ft / 27 m (AMSL)
Location 41.502064° 9.096960°
Runways 1
Magnetic Variation 2.426° E

METAR

LFKF 270600Z AUTO 07009KT 040V110 CAVOK 22/16 Q1017 NOSIG

Decode

TAF

TAF LFKF 270200Z 2703/2803 07012KT CAVOK BECMG 2708/2710 07015G30KT BECMG 2800/2803 07010KT

Decode

Destination Runways

ID Width Length Bearing (true) Bearing (mag) Surface Threshold Offset Overrun Length
05 148 ft / 45 m 8,131 ft / 2,478 m 47.42° 44.99° Asphalt 0 ft / 0 m 0 ft / 0 m
23 148 ft / 45 m 8,131 ft / 2,478 m 227.44° 225.01° Asphalt 0 ft / 0 m 0 ft / 0 m

Approach Navaids

Runway Type Ident Frequency Range Bearing (true) Bearing (mag) Slope Elevation
23 Localiser GR 110.50 MHz 27 nm / 50 km 229.00° 226.57° - 87 ft / 27 m (AMSL)
23 Glidescope GR 110.50 MHz 27 nm / 50 km 229.00° 226.57° 3.50° 87 ft / 27 m (AMSL)
23 DME GR 110.50 MHz 18 nm / 33 km - - - 131 ft / 40 m (AMSL)

Popular Alternatives